Powrót do katalogu

STARLINK-2725

AktywnyŁącznośćVLEO
NORAD 48681·PAYLOAD·🇺🇸 United States

Wystrzelony May 26, 2021 z Cape Canaveral Space Force Station

Loading…

Następne Przeloty (najbliższe 24 godziny)

TLE

ŚwieżeSource: CelesTrak SupGP

Epoka: Sep 14, 2026, 21:16 UTC

1 48681C 21044AV  26257.88659722  .00046142  00000+0  14836-2 0  2574
2 48681  53.1564 275.1401 0001203 100.8747 307.8683 15.31684048    12

Śledź STARLINK-2725 w czasie rzeczywistym z AllMySat

Download on the App Store